Regional Weather Roundup
Issued by NWS Wakefield, VA

Home | Current Version | Previous Version | Text Only | Print | Product List | Glossary On
Versions: 1 2 3 4 5 6 7 8 9 10 11 12 13 14 15 16 17 18 19 20 21 22 23 24 25 26 27 28 29 30 31 32 33 34 35 36 37 38 39 40 41 42 43 44 45 46 47 48 49 50
000
ASUS41 KAKQ 272210
RWRAKQ

REGIONAL WEATHER ROUNDUP
NATIONAL WEATHER SERVICE WAKEFIELD VA
500 PM EST TUE JAN 27 2015

Note: "fair" indicates few or no clouds below 12,000 feet with no
significant weather and/or obstructions to visibility. * = Denotes
station may not report precipitation (e.g., rain,snow,etc.),
thunder or fog.

VAZ042-051-052>054-056-272300-
NORTHERN VIRGINIA

CITY           SKY/WX    TMP DP  RH WIND       PRES   REMARKS
WASH NATIONAL  MOCLDY    35  22  58 NW14G25   29.85R
DULLES         MOCLDY    31  22  69 NW15G23   29.85R WCI  20
FORT BELVOIR   CLOUDY    33  23  68 NW15G22   29.85R WCI  22
QUANTICO       MOCLDY    33  22  63 NW13G25   29.87R WCI  24
FREDERICKSBRG* CLOUDY    35  24  64 NW12      29.85R
STAFFORD*      CLOUDY    33  22  62 N15G22    29.89R WCI  23
WARRENTON      CLOUDY    35  28  75 NW7       29.86R
CULPEPER*      NOT AVBL
MANASSAS*      NOT AVBL
LEESBURG*      FLURRIES  32  28  86 NW13G18   29.87R WCI  22
WINCHESTER     CLOUDY    30  19  64 NW17      29.88R WCI  18
FRONT ROYAL*   CLOUDY    30  21  69 NW9       29.87R
LURAY*         CLOUDY    32  23  69 NW6       29.87R
$$

VAZ048-049-060>072-079>083-272300-
CENTRAL AND SOUTH CENTRAL VIRGINIA

CITY           SKY/WX    TMP DP  RH WIND       PRES   REMARKS
RICHMOND       CLOUDY    37  28  70 NW12      29.83R
CHESTERFIELD*  MOCLDY    36  19  51 NW10      29.85R
PETERSBURG*    CLOUDY    37  29  73 NW8       29.84R
HANOVER        CLOUDY    35  23  61 VRB7      29.85R
TAPPAHANNOCK*  CLOUDY    35  22  60 NW6       29.83R
QUINTON*       CLOUDY    36  24  63 NW8G16    29.83R
CHARLOTTSVILLE CLOUDY    33  19  56 NW7G17    29.84R
GORDONSVILLE*  CLOUDY    34  24  65 CALM      29.84R
ORANGE*        CLOUDY    36  27  69 N6        29.86R
LOUISA*        CLOUDY    36  27  69 NW6       29.82R
BUMPASS*       CLOUDY    35  24  65 NW3       29.83R
FARMVILLE*     CLOUDY    41  26  56 NE5       29.82R
CREWE*         CLOUDY    36  25  64 N3        29.83R
FORT PICKETT*  CLOUDY    35  28  76 N7        29.82R
CHASE CITY*    FAIR      42  16  34 NW5       29.82R
CLARKSVILLE*   FAIR      41  10  28 NW5       29.82R
SOUTH HILL*    CLOUDY    37  27  68 N7        29.88R
LAWRENCEVILLE* CLOUDY    35  29  78 CALM      29.82R
EMPORIA*       CLOUDY    34  30  86 W3        29.85R
$$

VAZ088>098-272300-
SOUTHEAST VIRGINIA

CITY           SKY/WX    TMP DP  RH WIND       PRES   REMARKS
NORFOLK        PTCLDY    36  25  64 VRB5      29.79R
VIRGINIA BEACH PTCLDY    36  27  69 NW12      29.79R
NORFOLK NAVAL  PTCLDY    39  26  59 NW12G18   29.81R
WEST POINT*    PTCLDY    37  23  57 NW9       29.84R
SALUDA*        CLOUDY    35  25  68 NW10G16   29.80R
NEWPORT NEWS   PTCLDY    39  25  57 NW15      29.81R
LANGLEY AFB    PTCLDY    36  26  66 NW8       29.80R
FORT EUSTIS    CLOUDY    36  28  72 N13       29.79R
WILLIAMSBURG*    N/A     39  28  65 NW10      29.82R
HR EXEC AP*    MOCLDY    36  27  69 NW5       29.83R
FRANKLIN*      CLOUDY    35  27  75 NW7       29.83R
WAKEFIELD      CLOUDY    36  26  67 VRB7      29.82R
$$

VAZ020-022-025-037-045-272300-
WEST CENTRAL AND SOUTHWEST VIRGINIA

CITY           SKY/WX    TMP DP  RH WIND       PRES   REMARKS
STAUNTON*      PTCLDY    31  16  53 N14       29.87R WCI  21
WAYNESBORO*    MOCLDY    30  19  61 N12G17    29.83R WCI  21
HOT SPRINGS VA PTCLDY    17  11  78 W24       29.70R WCI  -1
LYNCHBURG      CLEAR     40   6  24 VRB5      29.82R
DANVILLE       CLEAR     44  10  25 NW10      29.84R
SOUTH BOSTON*  FAIR      42   7  24 NW10G18   29.83R
MARTINSVILLE   CLEAR     40   5  23 N10G18    29.87R
ROANOKE        CLEAR     35   0  22 NW22      29.87R WCI  23
BLACKSBURG     CLEAR     31  -1  25 NW14G25   29.86R WCI  21
DUBLIN*        CLEAR     33  -1  22 NW8       29.86R
MARION*        CLEAR     32  10  39 W18G24    29.88R WCI  20
HILLSVILLE*    CLEAR     31   5  34 NW14G24   29.81R WCI  20
RICHLANDS*     CLOUDY    28   8  42 NW9       29.90R
WISE*          MOCLDY    28  18  64 W7        29.94R
ABINGDON*      CLOUDY    33  15  47 NW10G21   29.93R
$$

MDZ021>025-VAZ099-100-272300-
SOUTHERN MARYLAND AND THE DELMARVA PENINSULA

CITY           SKY/WX    TMP DP  RH WIND       PRES   REMARKS
PATUXENT RIVER PTCLDY    32  23  69 NW16      29.80R WCI  21
BAY BRIDGE APT   N/A     34  21  60 NW15G22   29.80R WCI  24
LEONARDTOWN    PTCLDY    32  23  69 W8G22     29.82R
DOVER          CLEAR     32  18  55 W18       29.75R WCI  21
GEORGETOWN     CLEAR     34  18  52 NW8       29.75R
EASTON         PTCLDY    36  25  64 NW13      29.81R
CAMBRIDGE      CLEAR     36  25  64 NW13      29.77R
SALISBURY      CLEAR     36  24  62 W8        29.75R
OCEAN CITY     PTCLDY    33  24  69 NW7       29.74R
WALLOPS ISLAND PTCLDY    34  25  69 NW10G20   29.76R
ACCOMACK*      MOCLDY    34  27  75 NW12      29.78R
$$

NCZ012>017-030>032-272300-
NORTH CENTRAL AND EASTERN NORTH CAROLINA

CITY           SKY/WX    TMP DP  RH WIND       PRES   REMARKS
ROANOKE RAPIDS CLOUDY    36  28  75 N3        29.84R
RALEIGH        PTCLDY    43   9  24 VRB5      29.83R
ELIZABETH CITY CLOUDY    35  28  75 NW12      29.81R
AHOSKIE*       CLOUDY    34  28  77 N6        29.84R
EDENTON*       CLOUDY    35  30  82 NW9       29.82R
CURRITUCK*     CLOUDY    36  27  68 NW7       29.80R
KILL DEVIL HLS CLOUDY    35  30  82 NW7       29.77R
MANTEO         CLOUDY    36  28  75 NW6       29.79R
CAPE HATTERAS  CLOUDY    34  31  88 NW10G18   29.79R
TARBORO*       FAIR      38  28  67 NW3       29.85R
GOLDSBORO      PTCLDY    40  34  80 CALM      29.83R
WASHINGTON     CLOUDY    36  29  75 NW7       29.83R
GREENVILLE     MOCLDY    37  28  70 NW7       29.86R
NEW BERN       CLOUDY    40  27  59 NW10      29.84R
WILMINGTON     PTCLDY    42  28  57 NW12      29.84R
$$

VAZ048-272300-
ELSEWHERE

CITY           SKY/WX    TMP DP  RH WIND       PRES   REMARKS
HARRISBURG PA  PTCLDY    30  16  56 NW18      29.80R WCI  18
BALTIMORE      PTCLDY    32  21  64 W15G21    29.79R WCI  22
ANNAPOLIS      CLEAR     34  21  59 W14G22    29.79R WCI  25
ANDREWS AFB    CLOUDY    32  23  70 NW13      29.81R WCI  22
PHILADELPHIA   MOCLDY    33  12  41 NW20      29.73R WCI  21
HENDERSON NC   CLEAR     40   6  24 NW6       29.82R
GREENSBORO     CLEAR     43   7  22 NW16      29.82R
ROCKY MOUNT    CLEAR     40  26  57 NW3       29.83R
$$

VAZ100-272300-
MARINE

STATION/POSITION TIME  TEMP    WIND        PRES    WAVE   SWELL
                       AIR SEA DIR/SP/G            HT/PER HT/PER
                 (UTC) (F)     (DEG/KT/KT) (MB)    (FT/S) (FT/S)
BRANDYWINE LGT   2200   33 37  340/ 18/ 24 1006.7R
CAPE MAY NJ      2200   33 38  320/  6/ 15 1005.9R
LEWES DE         2200   34 36  320/ 21/ 26 1006.6R
15NM E FENWICK I 2200   35 42              1005.6R  10/13
OCEAN-CITY-INLET 2200   34 38  320/ 12/ 16 1006.3R
WACHAPREAGUE VA  2200   34 40  290/  5/ 12 1008.0R
THOMAS POINT MD  2200   33 37  300/ 24/ 28 1009.3R
GOOSES REEF MD   2200   35     VRB 16/ 19  1007.6R
COVE POINT MD    2200   33     320/ 13/ 17 1008.4R
SOLOMONS ISLAND  2200      38                N/A
BISHOPS HEAD MD  2200   36 37  310/ 15/ 20 1007.7R
PINEY POINT MD   2200          330/ 19/ 21   N/A
POTOMAC MD       2200   35     320/ 17/ 23 1007.8R
CAMBRIDGE MD     2200   36 36  310/ 10/ 16 1007.8R
LEWISETTA VA     2200   34 38  320/ 14/ 19 1009.3R
RAPPAHANNOCK LGT 2200          310/ 19/ 22 1009.0R
STINGRAY PT      2200   36     330/ 16/ 17 1009.4R
YORK RVR RNG VA  2200   36     330/ 18/ 20 1008.3R
JAMESTOWN VA     2200   36     340/ 12/ 16   N/A
DOMINION TERM VA 2200   36     340/ 13/ 16 1008.9R
KIPTOPEKE VA     2200      45  330/ 18/ 24   N/A
CHES BAY BRIDGE  2200   37 42  300/ 15/ 17 1008.1R
CAPE HENRY VA    2200   36     310/ 17/ 22 1007.3R
CHESAPEAKE LGHT  2100   36     330/ 23/ 25 1008.0R
WILLOUBY STN VA  2200   37     310/ 13/ 16 1009.3R
S CRANEY ISL VA  2200          320/ 10/ 15 1008.9R
CAPE HENRY BUOY  2200      44                N/A     7/14   3/14
1ST LANDING BUOY 2200   37     310/ 16/ 21 1008.0R
CAPE CHARLES BUO 2200      42                N/A     6/13   7/13
OFFSHORE WE BUOY 2200      46                N/A     8/13   8/13
64NM E OF VA BCH 2200   38 52  330/ 23/ 29 1006.1R  14/13  13/13
DUCK PIER NC     2200   36 43  310/ 10/ 13 1007.5R
44100 DUCK FRF   2200      46                N/A    11/13   8/13
44056 DUCK FRF   2200      44                N/A     9/13   7/13
OREGON INLET NC  2200   36 44  310/ 11/ 16 1008.3R
HATTERAS NC      2200   36 48  340/ 17/ 20 1008.9R
DIAMOND SHLS NC  2200   39 69  330/ 17/ 23 1007.8R  11/12  10/12



USA.gov is the U.S. government's official web portal to all federal, state and local government web resources and services.